Time,TemperatureF,DewpointF,PressureIn,WindDirection,WindDirectionDegrees,WindSpeedMPH,WindSpeedGustMPH,Humidity,HourlyPrecipIn,Conditions,Clouds,dailyrainin,SoftwareType,DateUTC
2013-01-04 00:03:00,10.1,5.9,30.33,SW,225,0.3,0.4,83,0.00,,,0.00,WUHU216HW,2013-01-04 06:03:00,
2013-01-04 00:08:00,9.9,5.4,30.33,SSE,158,0.0,0.4,82,0.00,,,0.00,WUHU216HW,2013-01-04 06:08:00,
2013-01-04 00:13:00,10.1,5.9,30.33,WSW,248,0.2,0.4,83,0.00,,,0.00,WUHU216HW,2013-01-04 06:13:00,
2013-01-04 00:18:00,9.9,5.7,30.33,SSW,203,0.2,0.4,83,0.00,,,0.00,WUHU216HW,2013-01-04 06:18:00,
2013-01-04 00:23:00,9.7,5.6,30.33,SSE,152,0.2,0.4,83,0.00,,,0.00,WUHU216HW,2013-01-04 06:23:00,
2013-01-04 00:28:00,9.9,5.7,30.32,SSW,194,0.3,0.7,83,0.00,,,0.00,WUHU216HW,2013-01-04 06:28:00,
2013-01-04 00:33:00,10.1,6.1,30.32,SW,219,0.3,0.7,84,0.00,,,0.00,WUHU216HW,2013-01-04 06:33:00,
2013-01-04 00:38:00,10.1,5.9,30.32,SE,138,0.3,0.7,83,0.00,,,0.00,WUHU216HW,2013-01-04 06:38:00,
2013-01-04 00:43:00,10.1,5.9,30.31,SSE,167,0.3,0.9,83,0.00,,,0.00,WUHU216HW,2013-01-04 06:43:00,
2013-01-04 00:48:00,10.1,5.9,30.31,SSE,158,0.4,0.9,83,0.00,,,0.00,WUHU216HW,2013-01-04 06:48:00,
2013-01-04 00:53:00,9.9,5.7,30.31,SSW,205,0.3,0.4,83,0.00,,,0.00,WUHU216HW,2013-01-04 06:53:00,
2013-01-04 00:58:00,9.7,5.6,30.31,SE,146,0.2,0.4,83,0.00,,,0.00,WUHU216HW,2013-01-04 06:58:00,
2013-01-04 01:03:00,9.9,5.7,30.30,South,173,0.3,0.7,83,0.00,,,0.00,WUHU216HW,2013-01-04 07:03:00,
2013-01-04 01:08:00,9.9,5.7,30.30,SSE,158,0.0,0.7,83,0.00,,,0.00,WUHU216HW,2013-01-04 07:08:00,
2013-01-04 01:13:00,9.7,5.6,30.31,ESE,113,0.0,0.2,83,0.00,,,0.00,WUHU216HW,2013-01-04 07:13:00,
2013-01-04 01:18:00,9.5,5.4,30.30,SSW,197,0.2,0.4,83,0.00,,,0.00,WUHU216HW,2013-01-04 07:18:00,
2013-01-04 01:23:00,9.7,5.6,30.30,SSE,158,0.2,0.4,83,0.00,,,0.00,WUHU216HW,2013-01-04 07:23:00,
2013-01-04 01:28:00,9.4,5.2,30.30,SSW,203,0.0,0.2,83,0.00,,,0.00,WUHU216HW,2013-01-04 07:28:00,
2013-01-04 01:33:00,9.0,4.9,30.30,SSE,158,0.0,0.2,83,0.00,,,0.00,WUHU216HW,2013-01-04 07:33:00,
2013-01-04 01:38:00,8.8,4.7,30.30,SE,135,0.2,0.2,83,0.00,,,0.00,WUHU216HW,2013-01-04 07:38:00,
2013-01-04 01:43:00,8.6,4.5,30.30,SSW,203,0.0,0.2,83,0.00,,,0.00,WUHU216HW,2013-01-04 07:43:00,
2013-01-04 01:48:00,8.3,4.1,30.30,SSW,203,0.0,0.0,83,0.00,,,0.00,WUHU216HW,2013-01-04 07:48:00,
2013-01-04 01:53:00,7.9,3.8,30.30,SSW,203,0.0,0.0,83,0.00,,,0.00,WUHU216HW,2013-01-04 07:53:00,
2013-01-04 01:58:00,7.6,3.4,30.31,SSW,203,0.0,0.0,83,0.00,,,0.00,WUHU216HW,2013-01-04 07:58:00,
2013-01-04 02:03:00,7.0,2.9,30.31,SSW,203,0.0,0.0,83,0.00,,,0.00,WUHU216HW,2013-01-04 08:03:00,
2013-01-04 02:08:00,6.5,2.3,30.31,SSW,203,0.0,0.0,83,0.00,,,0.00,WUHU216HW,2013-01-04 08:08:00,
2013-01-04 02:13:00,6.7,2.5,30.31,ESE,113,0.0,0.0,83,0.00,,,0.00,WUHU216HW,2013-01-04 08:13:00,
2013-01-04 02:18:00,7.0,3.2,30.31,SW,225,0.0,0.2,84,0.00,,,0.00,WUHU216HW,2013-01-04 08:18:00,
2013-01-04 02:23:00,7.4,3.8,30.31,SSW,203,0.0,0.2,85,0.00,,,0.00,WUHU216HW,2013-01-04 08:23:00,
2013-01-04 02:28:00,7.2,3.6,30.31,SSE,158,0.2,0.2,85,0.00,,,0.00,WUHU216HW,2013-01-04 08:28:00,
2013-01-04 02:33:00,7.0,3.2,30.31,South,180,0.0,0.2,84,0.00,,,0.00,WUHU216HW,2013-01-04 08:33:00,
2013-01-04 02:38:00,6.7,2.8,30.31,South,180,0.0,0.0,84,0.00,,,0.00,WUHU216HW,2013-01-04 08:38:00,
2013-01-04 02:43:00,6.1,2.0,30.31,South,180,0.0,0.0,83,0.00,,,0.00,WUHU216HW,2013-01-04 08:43:00,
2013-01-04 02:48:00,5.9,1.8,30.31,South,180,0.0,0.0,83,0.00,,,0.00,WUHU216HW,2013-01-04 08:48:00,
2013-01-04 02:53:00,5.9,1.8,30.31,SSE,158,0.0,0.0,83,0.00,,,0.00,WUHU216HW,2013-01-04 08:53:00,
2013-01-04 02:58:00,6.1,2.3,30.31,SSE,158,0.0,0.0,84,0.00,,,0.00,WUHU216HW,2013-01-04 08:58:00,
2013-01-04 03:03:00,6.3,2.7,30.31,South,180,0.0,0.0,85,0.00,,,0.00,WUHU216HW,2013-01-04 09:03:00,
2013-01-04 03:08:00,6.1,2.3,30.30,South,180,0.0,0.0,84,0.00,,,0.00,WUHU216HW,2013-01-04 09:08:00,
2013-01-04 03:13:00,5.8,1.6,30.30,South,180,0.0,0.0,83,0.00,,,0.00,WUHU216HW,2013-01-04 09:13:00,
2013-01-04 03:18:00,5.6,1.4,30.30,SSE,158,0.0,0.0,83,0.00,,,0.00,WUHU216HW,2013-01-04 09:18:00,
2013-01-04 03:23:00,6.3,2.7,30.30,WSW,248,0.0,0.2,85,0.00,,,0.00,WUHU216HW,2013-01-04 09:23:00,
2013-01-04 03:28:00,7.2,3.6,30.30,SSE,168,0.2,0.2,85,0.00,,,0.00,WUHU216HW,2013-01-04 09:28:00,
2013-01-04 03:33:00,7.9,4.6,30.30,SSE,158,0.2,0.2,86,0.00,,,0.00,WUHU216HW,2013-01-04 09:33:00,
2013-01-04 03:38:00,8.8,5.5,30.30,SSE,163,0.2,0.4,86,0.00,,,0.00,WUHU216HW,2013-01-04 09:38:00,
2013-01-04 03:43:00,9.4,6.2,30.30,SSW,194,0.2,0.4,87,0.00,,,0.00,WUHU216HW,2013-01-04 09:43:00,
2013-01-04 03:48:00,9.5,6.1,30.30,SE,137,0.3,0.4,86,0.00,,,0.00,WUHU216HW,2013-01-04 09:48:00,
2013-01-04 03:53:00,9.7,6.3,30.30,South,180,0.0,0.4,86,0.00,,,0.00,WUHU216HW,2013-01-04 09:53:00,
2013-01-04 03:58:00,9.7,6.6,30.29,SSE,158,0.0,0.2,87,0.00,,,0.00,WUHU216HW,2013-01-04 09:58:00,
2013-01-04 04:03:00,9.7,6.3,30.29,South,180,0.0,0.2,86,0.00,,,0.00,WUHU216HW,2013-01-04 10:03:00,
2013-01-04 04:08:00,9.7,6.3,30.30,SW,225,0.4,0.4,86,0.00,,,0.00,WUHU216HW,2013-01-04 10:08:00,
2013-01-04 04:13:00,9.7,6.3,30.29,SSW,203,0.2,0.4,86,0.00,,,0.00,WUHU216HW,2013-01-04 10:13:00,
2013-01-04 04:18:00,9.7,6.3,30.29,SW,225,0.0,0.4,86,0.00,,,0.00,WUHU216HW,2013-01-04 10:18:00,
2013-01-04 04:23:00,9.9,6.5,30.29,SSE,158,0.0,0.4,86,0.00,,,0.00,WUHU216HW,2013-01-04 10:23:00,
2013-01-04 04:28:00,10.1,6.7,30.29,South,188,0.3,0.4,86,0.00,,,0.00,WUHU216HW,2013-01-04 10:28:00,
2013-01-04 04:33:00,10.4,7.0,30.29,SW,225,0.2,0.4,86,0.00,,,0.00,WUHU216HW,2013-01-04 10:33:00,
2013-01-04 04:38:00,10.6,7.2,30.29,South,180,0.2,0.4,86,0.00,,,0.00,WUHU216HW,2013-01-04 10:38:00,
2013-01-04 04:43:00,11.0,7.8,30.28,SSW,192,0.3,1.1,87,0.00,,,0.00,WUHU216HW,2013-01-04 10:43:00,
2013-01-04 04:48:00,11.3,8.5,30.28,SSE,158,0.4,1.1,88,0.00,,,0.00,WUHU216HW,2013-01-04 10:48:00,
2013-01-04 04:53:00,11.9,9.0,30.28,SW,216,0.8,2.2,88,0.00,,,0.00,WUHU216HW,2013-01-04 10:53:00,
2013-01-04 04:58:00,11.9,8.7,30.28,SSW,203,0.4,2.2,87,0.00,,,0.00,WUHU216HW,2013-01-04 10:58:00,
2013-01-04 05:03:00,11.9,8.7,30.28,South,180,0.4,1.1,87,0.00,,,0.00,WUHU216HW,2013-01-04 11:03:00,
2013-01-04 05:08:00,12.2,8.8,30.28,South,180,0.9,1.8,86,0.00,,,0.00,WUHU216HW,2013-01-04 11:08:00,
2013-01-04 05:13:00,12.2,8.8,30.28,SSW,192,0.3,1.8,86,0.00,,,0.00,WUHU216HW,2013-01-04 11:13:00,
2013-01-04 05:18:00,12.1,8.6,30.28,SSE,158,0.4,1.1,86,0.00,,,0.00,WUHU216HW,2013-01-04 11:18:00,
2013-01-04 05:23:00,12.1,8.6,30.28,SSW,203,0.2,0.7,86,0.00,,,0.00,WUHU216HW,2013-01-04 11:23:00,
2013-01-04 05:28:00,12.1,8.6,30.28,SSE,158,0.7,0.9,86,0.00,,,0.00,WUHU216HW,2013-01-04 11:28:00,
2013-01-04 05:33:00,12.2,8.8,30.27,South,180,0.3,0.9,86,0.00,,,0.00,WUHU216HW,2013-01-04 11:33:00,
2013-01-04 05:38:00,12.1,8.6,30.27,SSW,208,0.4,0.9,86,0.00,,,0.00,WUHU216HW,2013-01-04 11:38:00,
2013-01-04 05:43:00,12.1,8.6,30.27,South,190,0.3,0.9,86,0.00,,,0.00,WUHU216HW,2013-01-04 11:43:00,
2013-01-04 05:48:00,12.1,8.6,30.27,SSE,158,0.4,0.9,86,0.00,,,0.00,WUHU216HW,2013-01-04 11:48:00,
2013-01-04 05:53:00,12.2,8.8,30.27,SSE,151,0.5,1.1,86,0.00,,,0.00,WUHU216HW,2013-01-04 11:53:00,
2013-01-04 05:58:00,12.2,8.8,30.27,West,259,0.2,1.1,86,0.00,,,0.00,WUHU216HW,2013-01-04 11:58:00,
2013-01-04 06:03:00,12.2,8.8,30.27,SE,145,0.7,1.6,86,0.00,,,0.00,WUHU216HW,2013-01-04 12:03:00,
2013-01-04 06:08:00,12.4,9.0,30.27,SSE,154,0.2,1.6,86,0.00,,,0.00,WUHU216HW,2013-01-04 12:08:00,
2013-01-04 06:13:00,12.4,9.0,30.27,SSE,155,0.3,0.4,86,0.00,,,0.00,WUHU216HW,2013-01-04 12:13:00,
2013-01-04 06:18:00,12.6,9.2,30.27,South,178,0.5,0.9,86,0.00,,,0.00,WUHU216HW,2013-01-04 12:18:00,
2013-01-04 06:23:00,12.6,9.2,30.27,South,186,0.2,0.9,86,0.00,,,0.00,WUHU216HW,2013-01-04 12:23:00,
2013-01-04 06:28:00,12.6,9.2,30.27,WSW,248,0.7,0.7,86,0.00,,,0.00,WUHU216HW,2013-01-04 12:28:00,
2013-01-04 06:33:00,13.0,9.5,30.27,SW,225,0.2,1.1,86,0.00,,,0.00,WUHU216HW,2013-01-04 12:33:00,
2013-01-04 06:38:00,13.0,9.5,30.27,SW,225,0.4,1.1,86,0.00,,,0.00,WUHU216HW,2013-01-04 12:38:00,
2013-01-04 06:43:00,13.1,9.7,30.27,South,180,0.4,0.4,86,0.00,,,0.00,WUHU216HW,2013-01-04 12:43:00,
2013-01-04 06:48:00,13.0,9.5,30.27,SSE,158,1.1,1.1,86,0.00,,,0.00,WUHU216HW,2013-01-04 12:48:00,
2013-01-04 06:53:00,13.0,9.5,30.27,SSW,203,0.3,1.1,86,0.00,,,0.00,WUHU216HW,2013-01-04 12:53:00,
2013-01-04 06:58:00,12.8,9.4,30.27,ESE,113,0.2,1.1,86,0.00,,,0.00,WUHU216HW,2013-01-04 12:58:00,
2013-01-04 07:03:00,12.6,9.2,30.26,South,180,0.2,0.2,86,0.00,,,0.00,WUHU216HW,2013-01-04 13:03:00,
2013-01-04 07:08:00,12.6,9.2,30.26,SE,135,0.0,0.4,86,0.00,,,0.00,WUHU216HW,2013-01-04 13:08:00,
2013-01-04 07:13:00,13.0,9.8,30.26,SSW,195,0.5,1.1,87,0.00,,,0.00,WUHU216HW,2013-01-04 13:13:00,
2013-01-04 07:18:00,13.3,9.9,30.26,SSW,203,0.2,1.1,86,0.00,,,0.00,WUHU216HW,2013-01-04 13:18:00,
2013-01-04 07:23:00,13.1,9.7,30.26,SSE,158,0.4,0.4,86,0.00,,,0.00,WUHU216HW,2013-01-04 13:23:00,
2013-01-04 07:28:00,13.3,10.2,30.26,South,169,0.3,0.4,87,0.00,,,0.00,WUHU216HW,2013-01-04 13:28:00,
2013-01-04 07:33:00,13.5,10.1,30.26,South,176,0.3,0.9,86,0.00,,,0.00,WUHU216HW,2013-01-04 13:33:00,
2013-01-04 07:38:00,13.5,10.1,30.26,SSE,158,0.2,0.9,86,0.00,,,0.00,WUHU216HW,2013-01-04 13:38:00,
2013-01-04 07:43:00,13.5,10.4,30.26,SW,227,0.9,1.1,87,0.00,,,0.00,WUHU216HW,2013-01-04 13:43:00,
2013-01-04 07:48:00,13.7,10.3,30.26,South,169,0.4,1.1,86,0.00,,,0.00,WUHU216HW,2013-01-04 13:48:00,
2013-01-04 07:53:00,13.9,10.7,30.26,SE,135,0.9,0.9,87,0.00,,,0.00,WUHU216HW,2013-01-04 13:53:00,
2013-01-04 07:58:00,14.2,11.1,30.27,SW,225,0.9,0.9,87,0.00,,,0.00,WUHU216HW,2013-01-04 13:58:00,
2013-01-04 08:03:00,14.6,11.4,30.26,South,174,0.4,1.1,87,0.00,,,0.00,WUHU216HW,2013-01-04 14:03:00,
2013-01-04 08:08:00,14.8,11.5,30.26,SSE,158,0.4,1.1,87,0.00,,,0.00,WUHU216HW,2013-01-04 14:08:00,
2013-01-04 08:13:00,15.1,11.6,30.26,South,180,0.4,0.9,86,0.00,,,0.00,WUHU216HW,2013-01-04 14:13:00,
2013-01-04 08:18:00,15.5,12.0,30.26,SW,225,0.4,1.3,86,0.00,,,0.00,WUHU216HW,2013-01-04 14:18:00,
2013-01-04 08:23:00,16.2,12.9,30.26,SSE,158,1.1,1.8,87,0.00,,,0.00,WUHU216HW,2013-01-04 14:23:00,
2013-01-04 08:28:00,16.9,13.3,30.26,SW,225,0.7,1.8,86,0.00,,,0.00,WUHU216HW,2013-01-04 14:28:00,
2013-01-04 08:33:00,17.3,13.4,30.26,SSE,158,0.7,1.3,85,0.00,,,0.00,WUHU216HW,2013-01-04 14:33:00,
2013-01-04 08:38:00,17.5,13.6,30.26,SSE,156,1.0,1.6,85,0.00,,,0.00,WUHU216HW,2013-01-04 14:38:00,
2013-01-04 08:43:00,17.8,13.7,30.26,SSW,195,0.7,2.2,84,0.00,,,0.00,WUHU216HW,2013-01-04 14:43:00,
2013-01-04 08:48:00,18.5,14.4,30.27,SSW,194,0.5,2.2,84,0.00,,,0.00,WUHU216HW,2013-01-04 14:48:00,
2013-01-04 08:53:00,19.1,14.7,30.27,SSW,194,0.6,1.8,83,0.00,,,0.00,WUHU216HW,2013-01-04 14:53:00,
2013-01-04 08:58:00,19.8,15.4,30.27,SSW,205,0.9,2.9,83,0.00,,,0.00,WUHU216HW,2013-01-04 14:58:00,
2013-01-04 09:03:00,20.5,15.8,30.27,SW,225,1.3,2.9,82,0.00,,,0.00,WUHU216HW,2013-01-04 15:03:00,
2013-01-04 09:08:00,21.2,16.3,30.27,South,191,0.9,1.8,81,0.00,,,0.00,WUHU216HW,2013-01-04 15:08:00,
2013-01-04 09:13:00,22.1,16.3,30.27,SSW,194,1.3,3.4,78,0.00,,,0.00,WUHU216HW,2013-01-04 15:13:00,
2013-01-04 09:18:00,23.0,16.9,30.27,SSW,201,1.6,3.4,77,0.00,,,0.00,WUHU216HW,2013-01-04 15:18:00,
2013-01-04 09:23:00,23.9,17.8,30.27,SSW,203,1.6,2.5,77,0.00,,,0.00,WUHU216HW,2013-01-04 15:23:00,
2013-01-04 09:28:00,24.5,17.6,30.27,WSW,248,4.0,4.0,75,0.00,,,0.00,WUHU216HW,2013-01-04 15:28:00,
2013-01-04 09:33:00,24.3,17.2,30.28,SW,218,3.5,4.7,74,0.00,,,0.00,WUHU216HW,2013-01-04 15:33:00,
2013-01-04 09:38:00,24.8,17.6,30.28,South,187,2.5,4.7,74,0.00,,,0.00,WUHU216HW,2013-01-04 15:38:00,
2013-01-04 09:43:00,25.4,18.2,30.28,SSW,206,2.0,3.8,74,0.00,,,0.00,WUHU216HW,2013-01-04 15:43:00,
2013-01-04 09:48:00,25.6,17.7,30.28,SW,216,2.4,5.8,72,0.00,,,0.00,WUHU216HW,2013-01-04 15:48:00,
2013-01-04 09:53:00,26.3,18.5,30.28,WSW,238,1.7,5.8,72,0.00,,,0.00,WUHU216HW,2013-01-04 15:53:00,
2013-01-04 09:58:00,26.6,18.8,30.29,SW,225,1.9,3.6,72,0.00,,,0.00,WUHU216HW,2013-01-04 15:58:00,
2013-01-04 10:03:00,27.2,18.7,30.29,WSW,246,2.3,3.6,70,0.00,,,0.00,WUHU216HW,2013-01-04 16:03:00,
2013-01-04 10:08:00,28.1,19.6,30.29,SSE,159,1.0,3.1,70,0.00,,,0.00,WUHU216HW,2013-01-04 16:08:00,
2013-01-04 10:13:00,28.6,19.5,30.29,SSE,158,2.2,2.7,68,0.00,,,0.00,WUHU216HW,2013-01-04 16:13:00,
2013-01-04 10:18:00,28.3,19.8,30.28,SW,225,2.5,3.4,70,0.00,,,0.00,WUHU216HW,2013-01-04 16:18:00,
2013-01-04 10:23:00,28.1,19.6,30.28,SSW,205,1.4,3.4,70,0.00,,,0.00,WUHU216HW,2013-01-04 16:23:00,
2013-01-04 10:28:00,28.4,20.0,30.28,SW,216,1.7,3.1,70,0.00,,,0.00,WUHU216HW,2013-01-04 16:28:00,
2013-01-04 10:33:00,29.2,20.6,30.28,SW,225,1.1,3.1,70,0.00,,,0.00,WUHU216HW,2013-01-04 16:33:00,
2013-01-04 10:38:00,29.9,20.9,30.28,SW,225,1.1,3.1,69,0.00,,,0.00,WUHU216HW,2013-01-04 16:38:00,
2013-01-04 10:43:00,29.5,20.3,30.27,SSW,205,2.4,4.5,68,0.00,,,0.00,WUHU216HW,2013-01-04 16:43:00,
2013-01-04 10:48:00,29.2,20.3,30.27,SW,224,1.7,4.5,69,0.00,,,0.00,WUHU216HW,2013-01-04 16:48:00,
2013-01-04 10:53:00,29.7,21.2,30.27,SSW,195,2.2,3.8,70,0.00,,,0.00,WUHU216HW,2013-01-04 16:53:00,
2013-01-04 10:58:00,29.7,20.4,30.27,South,191,2.9,5.4,68,0.00,,,0.00,WUHU216HW,2013-01-04 16:58:00,
2013-01-04 11:03:00,29.9,20.9,30.27,WSW,248,3.4,5.4,69,0.00,,,0.00,WUHU216HW,2013-01-04 17:03:00,
2013-01-04 11:08:00,29.5,20.6,30.27,South,180,2.7,5.8,69,0.00,,,0.00,WUHU216HW,2013-01-04 17:08:00,
2013-01-04 11:13:00,30.1,21.1,30.26,South,180,5.1,5.8,69,0.00,,,0.00,WUHU216HW,2013-01-04 17:13:00,
2013-01-04 11:18:00,31.0,22.0,30.26,SSW,203,3.1,5.1,69,0.00,,,0.00,WUHU216HW,2013-01-04 17:18:00,
2013-01-04 11:23:00,31.3,22.0,30.25,South,178,1.5,5.1,68,0.00,,,0.00,WUHU216HW,2013-01-04 17:23:00,
2013-01-04 11:28:00,31.9,21.8,30.25,South,180,2.2,4.0,66,0.00,,,0.00,WUHU216HW,2013-01-04 17:28:00,
2013-01-04 11:33:00,32.8,22.6,30.25,South,186,2.9,4.5,66,0.00,,,0.00,WUHU216HW,2013-01-04 17:33:00,
2013-01-04 11:38:00,32.8,22.6,30.25,WSW,248,2.0,5.4,66,0.00,,,0.00,WUHU216HW,2013-01-04 17:38:00,
2013-01-04 11:43:00,33.5,22.9,30.25,SSW,194,2.9,5.4,65,0.00,,,0.00,WUHU216HW,2013-01-04 17:43:00,
2013-01-04 11:48:00,34.2,23.2,30.25,South,180,3.6,4.5,64,0.00,,,0.00,WUHU216HW,2013-01-04 17:48:00,
2013-01-04 11:53:00,34.4,23.4,30.24,South,187,2.0,3.6,64,0.00,,,0.00,WUHU216HW,2013-01-04 17:53:00,
2013-01-04 11:58:00,35.1,23.4,30.24,SSE,158,4.0,4.0,62,0.00,,,0.00,WUHU216HW,2013-01-04 17:58:00,
2013-01-04 12:03:00,35.3,23.9,30.24,SW,225,2.5,4.0,63,0.00,,,0.00,WUHU216HW,2013-01-04 18:03:00,
2013-01-04 12:08:00,35.6,23.9,30.24,SSW,199,1.7,4.0,62,0.00,,,0.00,WUHU216HW,2013-01-04 18:08:00,
2013-01-04 12:13:00,36.2,24.0,30.24,South,180,2.5,3.8,61,0.00,,,0.00,WUHU216HW,2013-01-04 18:13:00,
2013-01-04 12:18:00,35.8,23.4,30.23,SSW,203,3.7,5.4,60,0.00,,,0.00,WUHU216HW,2013-01-04 18:18:00,
2013-01-04 12:23:00,35.6,23.9,30.23,SW,216,2.2,5.4,62,0.00,,,0.00,WUHU216HW,2013-01-04 18:23:00,
2013-01-04 12:28:00,36.5,24.0,30.23,SSW,203,2.5,4.5,60,0.00,,,0.00,WUHU216HW,2013-01-04 18:28:00,
2013-01-04 12:33:00,37.1,24.9,30.23,South,169,1.9,4.7,61,0.00,,,0.00,WUHU216HW,2013-01-04 18:33:00,
2013-01-04 12:38:00,37.8,24.8,30.23,SW,231,2.7,4.7,59,0.00,,,0.00,WUHU216HW,2013-01-04 18:38:00,
2013-01-04 12:43:00,38.5,24.9,30.22,SSE,158,2.5,3.6,58,0.00,,,0.00,WUHU216HW,2013-01-04 18:43:00,
2013-01-04 12:48:00,39.1,25.5,30.22,SW,225,3.1,3.4,58,0.00,,,0.00,WUHU216HW,2013-01-04 18:48:00,
2013-01-04 12:53:00,39.2,24.8,30.22,SW,225,3.6,3.6,56,0.00,,,0.00,WUHU216HW,2013-01-04 18:53:00,
2013-01-04 12:58:00,38.5,24.1,30.22,South,180,6.3,7.6,56,0.00,,,0.00,WUHU216HW,2013-01-04 18:58:00,
2013-01-04 13:03:00,38.2,24.7,30.21,WSW,249,3.1,7.6,58,0.00,,,0.00,WUHU216HW,2013-01-04 19:03:00,
2013-01-04 13:08:00,38.5,25.4,30.21,SW,214,1.9,6.3,59,0.00,,,0.00,WUHU216HW,2013-01-04 19:08:00,
2013-01-04 13:13:00,39.2,25.2,30.21,West,270,2.9,4.7,57,0.00,,,0.00,WUHU216HW,2013-01-04 19:13:00,
2013-01-04 13:18:00,40.0,25.4,30.21,WNW,295,2.1,4.0,56,0.00,,,0.00,WUHU216HW,2013-01-04 19:18:00,
2013-01-04 13:23:00,40.1,25.1,30.21,South,180,6.0,6.0,55,0.00,,,0.00,WUHU216HW,2013-01-04 19:23:00,
2013-01-04 13:28:00,39.4,25.4,30.21,SSW,203,2.9,8.5,57,0.00,,,0.00,WUHU216HW,2013-01-04 19:28:00,
2013-01-04 13:33:00,39.4,24.5,30.21,SSW,201,3.7,8.5,55,0.00,,,0.00,WUHU216HW,2013-01-04 19:33:00,
2013-01-04 13:38:00,39.4,25.4,30.21,SW,221,3.9,5.8,57,0.00,,,0.00,WUHU216HW,2013-01-04 19:38:00,
2013-01-04 13:43:00,39.2,25.6,30.21,SW,217,5.1,6.5,58,0.00,,,0.00,WUHU216HW,2013-01-04 19:43:00,
2013-01-04 13:48:00,39.4,25.4,30.21,SW,225,4.7,6.5,57,0.00,,,0.00,WUHU216HW,2013-01-04 19:48:00,
2013-01-04 13:53:00,38.7,25.1,30.21,SSW,206,4.1,7.6,58,0.00,,,0.00,WUHU216HW,2013-01-04 19:53:00,
2013-01-04 13:58:00,39.4,25.7,30.21,SSE,158,3.1,7.6,58,0.00,,,0.00,WUHU216HW,2013-01-04 19:58:00,
2013-01-04 14:03:00,40.1,26.0,30.21,SSW,201,2.2,4.9,57,0.00,,,0.00,WUHU216HW,2013-01-04 20:03:00,
2013-01-04 14:08:00,40.1,25.6,30.20,South,180,4.3,4.9,56,0.00,,,0.00,WUHU216HW,2013-01-04 20:08:00,
2013-01-04 14:13:00,39.6,25.1,30.21,SW,225,4.7,6.7,56,0.00,,,0.00,WUHU216HW,2013-01-04 20:13:00,
2013-01-04 14:18:00,40.7,26.1,30.21,SSW,197,2.2,6.7,56,0.00,,,0.00,WUHU216HW,2013-01-04 20:18:00,
2013-01-04 14:23:00,41.0,25.6,30.20,SSW,203,3.8,3.8,54,0.00,,,0.00,WUHU216HW,2013-01-04 20:23:00,
2013-01-04 14:28:00,40.9,25.8,30.20,SSE,158,4.7,4.9,55,0.00,,,0.00,WUHU216HW,2013-01-04 20:28:00,
2013-01-04 14:33:00,40.9,25.4,30.20,SSW,205,2.5,4.9,54,0.00,,,0.00,WUHU216HW,2013-01-04 20:33:00,
2013-01-04 14:38:00,41.4,25.5,30.20,SSW,203,2.9,4.7,53,0.00,,,0.00,WUHU216HW,2013-01-04 20:38:00,
2013-01-04 14:43:00,41.4,25.5,30.20,ESE,113,3.1,3.6,53,0.00,,,0.00,WUHU216HW,2013-01-04 20:43:00,
2013-01-04 14:48:00,41.2,25.8,30.20,SSW,203,1.1,4.9,54,0.00,,,0.00,WUHU216HW,2013-01-04 20:48:00,
2013-01-04 14:53:00,41.2,25.3,30.20,SSW,199,3.3,5.8,53,0.00,,,0.00,WUHU216HW,2013-01-04 20:53:00,
2013-01-04 14:58:00,41.6,25.7,30.20,SSE,158,3.4,5.8,53,0.00,,,0.00,WUHU216HW,2013-01-04 20:58:00,
2013-01-04 15:03:00,41.4,25.5,30.20,SSW,203,5.8,5.8,53,0.00,,,0.00,WUHU216HW,2013-01-04 21:03:00,
2013-01-04 15:08:00,41.0,25.6,30.21,SSW,198,2.3,5.8,54,0.00,,,0.00,WUHU216HW,2013-01-04 21:08:00,
2013-01-04 15:13:00,41.4,25.5,30.21,WSW,248,4.0,5.8,53,0.00,,,0.00,WUHU216HW,2013-01-04 21:13:00,
2013-01-04 15:18:00,41.4,25.9,30.21,SW,225,4.5,4.7,54,0.00,,,0.00,WUHU216HW,2013-01-04 21:18:00,
2013-01-04 15:23:00,40.7,25.7,30.21,SW,225,2.9,5.6,55,0.00,,,0.00,WUHU216HW,2013-01-04 21:23:00,
2013-01-04 15:28:00,40.9,25.8,30.21,SW,225,4.7,5.6,55,0.00,,,0.00,WUHU216HW,2013-01-04 21:28:00,
2013-01-04 15:33:00,40.7,25.7,30.22,SSW,196,3.1,4.7,55,0.00,,,0.00,WUHU216HW,2013-01-04 21:33:00,
2013-01-04 15:38:00,41.0,26.5,30.21,SSE,158,1.6,4.7,56,0.00,,,0.00,WUHU216HW,2013-01-04 21:38:00,
2013-01-04 15:43:00,41.4,25.5,30.21,South,180,3.8,4.5,53,0.00,,,0.00,WUHU216HW,2013-01-04 21:43:00,
2013-01-04 15:48:00,40.7,25.7,30.21,SW,225,4.0,4.5,55,0.00,,,0.00,WUHU216HW,2013-01-04 21:48:00,
2013-01-04 15:53:00,40.3,25.7,30.22,SW,225,3.4,4.0,56,0.00,,,0.00,WUHU216HW,2013-01-04 21:53:00,
2013-01-04 15:58:00,39.6,25.5,30.22,SSW,200,3.6,4.7,57,0.00,,,0.00,WUHU216HW,2013-01-04 21:58:00,
2013-01-04 16:03:00,39.1,25.5,30.22,SSE,163,1.3,4.7,58,0.00,,,0.00,WUHU216HW,2013-01-04 22:03:00,
2013-01-04 16:08:00,37.8,25.2,30.22,SSW,197,2.1,3.4,60,0.00,,,0.00,WUHU216HW,2013-01-04 22:08:00,
2013-01-04 16:13:00,37.1,24.9,30.21,SE,135,1.6,3.4,61,0.00,,,0.00,WUHU216HW,2013-01-04 22:13:00,
2013-01-04 16:18:00,36.5,24.8,30.22,South,180,3.4,3.4,62,0.00,,,0.00,WUHU216HW,2013-01-04 22:18:00,
2013-01-04 16:23:00,36.2,24.9,30.21,SSW,203,2.5,4.3,63,0.00,,,0.00,WUHU216HW,2013-01-04 22:23:00,
2013-01-04 16:28:00,35.8,24.5,30.21,South,188,0.8,4.3,63,0.00,,,0.00,WUHU216HW,2013-01-04 22:28:00,
2013-01-04 16:33:00,35.6,24.7,30.21,South,170,1.1,2.5,64,0.00,,,0.00,WUHU216HW,2013-01-04 22:33:00,
2013-01-04 16:38:00,35.3,24.3,30.21,South,180,0.9,2.5,64,0.00,,,0.00,WUHU216HW,2013-01-04 22:38:00,
2013-01-04 16:43:00,34.9,24.3,30.21,SE,135,0.7,2.5,65,0.00,,,0.00,WUHU216HW,2013-01-04 22:43:00,
2013-01-04 16:48:00,34.6,24.3,30.21,South,190,0.3,1.8,66,0.00,,,0.00,WUHU216HW,2013-01-04 22:48:00,
2013-01-04 16:53:00,34.2,24.3,30.21,SE,135,0.4,1.8,67,0.00,,,0.00,WUHU216HW,2013-01-04 22:53:00,
2013-01-04 16:58:00,33.7,23.8,30.21,SW,225,1.6,1.6,67,0.00,,,0.00,WUHU216HW,2013-01-04 22:58:00,
2013-01-04 17:03:00,33.5,23.9,30.21,SSW,212,0.7,1.6,68,0.00,,,0.00,WUHU216HW,2013-01-04 23:03:00,
2013-01-04 17:08:00,33.5,23.9,30.21,SW,225,1.1,1.6,68,0.00,,,0.00,WUHU216HW,2013-01-04 23:08:00,
2013-01-04 17:13:00,33.1,24.0,30.21,SSW,202,0.6,1.3,69,0.00,,,0.00,WUHU216HW,2013-01-04 23:13:00,
2013-01-04 17:18:00,32.9,23.9,30.21,SSE,158,0.7,1.8,69,0.00,,,0.00,WUHU216HW,2013-01-04 23:18:00,
2013-01-04 17:23:00,32.8,24.0,30.21,SSW,203,1.1,1.8,70,0.00,,,0.00,WUHU216HW,2013-01-04 23:23:00,
2013-01-04 17:28:00,32.6,23.5,30.21,South,180,0.0,1.8,69,0.00,,,0.00,WUHU216HW,2013-01-04 23:28:00,
2013-01-04 17:33:00,32.0,23.0,30.21,South,180,0.3,1.8,69,0.00,,,0.00,WUHU216HW,2013-01-04 23:33:00,
2013-01-04 17:38:00,31.5,22.5,30.22,SSW,203,0.6,0.7,69,0.00,,,0.00,WUHU216HW,2013-01-04 23:38:00,
2013-01-04 17:43:00,31.1,22.5,30.22,SW,225,0.7,0.7,70,0.00,,,0.00,WUHU216HW,2013-01-04 23:43:00,
2013-01-04 17:48:00,31.1,22.9,30.22,WSW,248,0.4,0.9,71,0.00,,,0.00,WUHU216HW,2013-01-04 23:48:00,
2013-01-04 17:53:00,31.0,23.0,30.22,SSW,195,0.5,1.6,72,0.00,,,0.00,WUHU216HW,2013-01-04 23:53:00,
2013-01-04 17:58:00,31.0,23.0,30.22,South,175,0.4,1.6,72,0.00,,,0.00,WUHU216HW,2013-01-04 23:58:00,
2013-01-04 18:03:00,31.0,23.0,30.22,SSW,203,0.4,1.1,72,0.00,,,0.00,WUHU216HW,2013-01-05 00:03:00,
2013-01-04 18:08:00,30.6,22.6,30.22,South,180,1.1,1.1,72,0.00,,,0.00,WUHU216HW,2013-01-05 00:08:00,
2013-01-04 18:13:00,30.6,23.0,30.22,SSW,205,0.4,1.1,73,0.00,,,0.00,WUHU216HW,2013-01-05 00:13:00,
2013-01-04 18:18:00,30.6,23.0,30.23,South,178,0.3,1.3,73,0.00,,,0.00,WUHU216HW,2013-01-05 00:18:00,
2013-01-04 18:23:00,30.4,22.8,30.23,SSE,158,0.4,1.3,73,0.00,,,0.00,WUHU216HW,2013-01-05 00:23:00,
2013-01-04 18:28:00,30.1,22.4,30.23,SSW,205,0.6,0.7,73,0.00,,,0.00,WUHU216HW,2013-01-05 00:28:00,
2013-01-04 18:33:00,30.1,22.8,30.22,South,183,0.3,1.1,74,0.00,,,0.00,WUHU216HW,2013-01-05 00:33:00,
2013-01-04 18:38:00,29.9,22.9,30.22,South,180,0.9,1.6,75,0.00,,,0.00,WUHU216HW,2013-01-05 00:38:00,
2013-01-04 18:43:00,30.1,23.0,30.23,South,171,0.3,1.6,75,0.00,,,0.00,WUHU216HW,2013-01-05 00:43:00,
2013-01-04 18:48:00,29.9,22.9,30.23,SW,225,0.4,0.9,75,0.00,,,0.00,WUHU216HW,2013-01-05 00:48:00,
2013-01-04 18:53:00,29.9,22.9,30.22,SSW,199,0.4,0.9,75,0.00,,,0.00,WUHU216HW,2013-01-05 00:53:00,
2013-01-04 18:58:00,29.7,22.4,30.22,South,180,0.4,1.1,74,0.00,,,0.00,WUHU216HW,2013-01-05 00:58:00,
2013-01-04 19:03:00,29.7,22.7,30.23,SW,225,0.4,1.6,75,0.00,,,0.00,WUHU216HW,2013-01-05 01:03:00,
2013-01-04 19:08:00,29.7,23.1,30.23,South,177,0.7,1.8,76,0.00,,,0.00,WUHU216HW,2013-01-05 01:08:00,
2013-01-04 19:13:00,29.5,22.9,30.23,SW,217,0.6,2.0,76,0.00,,,0.00,WUHU216HW,2013-01-05 01:13:00,
2013-01-04 19:18:00,29.5,23.1,30.23,SW,217,0.6,2.5,77,0.00,,,0.00,WUHU216HW,2013-01-05 01:18:00,
2013-01-04 19:23:00,29.3,23.0,30.23,SSW,202,0.8,2.5,77,0.00,,,0.00,WUHU216HW,2013-01-05 01:23:00,
2013-01-04 19:28:00,29.3,23.0,30.24,SW,224,0.9,1.6,77,0.00,,,0.00,WUHU216HW,2013-01-05 01:28:00,
2013-01-04 19:33:00,29.5,23.1,30.24,SSE,156,1.0,2.0,77,0.00,,,0.00,WUHU216HW,2013-01-05 01:33:00,
2013-01-04 19:38:00,29.3,23.0,30.24,SSW,203,0.3,2.0,77,0.00,,,0.00,WUHU216HW,2013-01-05 01:38:00,
2013-01-04 19:43:00,29.2,22.9,30.24,South,169,0.6,1.1,77,0.00,,,0.00,WUHU216HW,2013-01-05 01:43:00,
2013-01-04 19:48:00,29.0,23.0,30.24,SSW,203,0.3,1.1,78,0.00,,,0.00,WUHU216HW,2013-01-05 01:48:00,
2013-01-04 19:53:00,28.6,22.3,30.24,South,185,0.3,0.4,77,0.00,,,0.00,WUHU216HW,2013-01-05 01:53:00,
2013-01-04 19:58:00,28.4,22.4,30.24,SSW,205,0.5,1.1,78,0.00,,,0.00,WUHU216HW,2013-01-05 01:58:00,
2013-01-04 20:03:00,28.4,22.8,30.24,South,180,0.7,1.1,79,0.00,,,0.00,WUHU216HW,2013-01-05 02:03:00,
2013-01-04 20:08:00,28.4,22.8,30.24,South,187,0.7,1.3,79,0.00,,,0.00,WUHU216HW,2013-01-05 02:08:00,
2013-01-04 20:13:00,28.4,22.8,30.24,SSW,207,0.4,1.3,79,0.00,,,0.00,WUHU216HW,2013-01-05 02:13:00,
2013-01-04 20:18:00,28.4,22.8,30.24,SE,135,0.4,1.1,79,0.00,,,0.00,WUHU216HW,2013-01-05 02:18:00,
2013-01-04 20:23:00,28.3,22.6,30.24,SE,140,0.6,1.1,79,0.00,,,0.00,WUHU216HW,2013-01-05 02:23:00,
2013-01-04 20:28:00,28.1,22.4,30.24,SE,146,0.3,1.1,79,0.00,,,0.00,WUHU216HW,2013-01-05 02:28:00,
2013-01-04 20:33:00,27.7,22.1,30.24,SE,135,0.4,0.4,79,0.00,,,0.00,WUHU216HW,2013-01-05 02:33:00,
2013-01-04 20:38:00,27.4,21.7,30.23,SE,135,0.2,0.4,79,0.00,,,0.00,WUHU216HW,2013-01-05 02:38:00,
2013-01-04 20:43:00,27.0,21.3,30.23,SSE,158,0.0,0.4,79,0.00,,,0.00,WUHU216HW,2013-01-05 02:43:00,
2013-01-04 20:48:00,26.6,21.0,30.23,SE,135,0.2,0.2,79,0.00,,,0.00,WUHU216HW,2013-01-05 02:48:00,
2013-01-04 20:53:00,26.3,20.9,30.23,SSW,203,0.4,0.4,80,0.00,,,0.00,WUHU216HW,2013-01-05 02:53:00,
2013-01-04 20:58:00,25.6,20.0,30.22,SSW,203,0.0,0.4,79,0.00,,,0.00,WUHU216HW,2013-01-05 02:58:00,
2013-01-04 21:03:00,24.7,19.1,30.22,ESE,113,0.0,0.0,79,0.00,,,0.00,WUHU216HW,2013-01-05 03:03:00,
2013-01-04 21:08:00,24.3,19.4,30.22,ESE,113,0.0,0.0,81,0.00,,,0.00,WUHU216HW,2013-01-05 03:08:00,
2013-01-04 21:13:00,24.1,19.4,30.22,ESE,113,0.0,0.0,82,0.00,,,0.00,WUHU216HW,2013-01-05 03:13:00,
2013-01-04 21:18:00,24.1,19.4,30.22,SSE,158,0.0,0.0,82,0.00,,,0.00,WUHU216HW,2013-01-05 03:18:00,
2013-01-04 21:23:00,23.8,19.1,30.22,South,180,0.2,0.2,82,0.00,,,0.00,WUHU216HW,2013-01-05 03:23:00,
2013-01-04 21:28:00,23.8,19.6,30.22,SSW,203,0.2,0.2,84,0.00,,,0.00,WUHU216HW,2013-01-05 03:28:00,
2013-01-04 21:33:00,23.9,20.1,30.22,SSE,158,0.2,0.2,85,0.00,,,0.00,WUHU216HW,2013-01-05 03:33:00,
2013-01-04 21:38:00,23.9,19.8,30.22,SSW,203,0.2,0.4,84,0.00,,,0.00,WUHU216HW,2013-01-05 03:38:00,
2013-01-04 21:43:00,24.1,20.0,30.22,SE,127,0.3,0.4,84,0.00,,,0.00,WUHU216HW,2013-01-05 03:43:00,
2013-01-04 21:48:00,24.1,20.0,30.23,SSE,158,0.0,0.4,84,0.00,,,0.00,WUHU216HW,2013-01-05 03:48:00,
2013-01-04 21:53:00,24.1,20.0,30.23,SSW,203,0.0,0.2,84,0.00,,,0.00,WUHU216HW,2013-01-05 03:53:00,
2013-01-04 21:58:00,24.1,20.3,30.23,SSE,158,0.0,0.2,85,0.00,,,0.00,WUHU216HW,2013-01-05 03:58:00,
2013-01-04 22:03:00,24.1,20.0,30.23,SSE,165,0.3,0.7,84,0.00,,,0.00,WUHU216HW,2013-01-05 04:03:00,
2013-01-04 22:08:00,24.5,20.3,30.23,SSW,203,0.2,0.7,84,0.00,,,0.00,WUHU216HW,2013-01-05 04:08:00,
2013-01-04 22:13:00,24.8,21.0,30.23,SSW,208,0.3,0.9,85,0.00,,,0.00,WUHU216HW,2013-01-05 04:13:00,
2013-01-04 22:18:00,25.6,22.0,30.23,SSW,203,1.8,1.8,86,0.00,,,0.00,WUHU216HW,2013-01-05 04:18:00,
2013-01-04 22:23:00,25.7,21.5,30.23,South,180,0.2,1.8,84,0.00,,,0.00,WUHU216HW,2013-01-05 04:23:00,
2013-01-04 22:28:00,25.7,21.5,30.23,South,189,0.5,1.8,84,0.00,,,0.00,WUHU216HW,2013-01-05 04:28:00,
2013-01-04 22:33:00,25.7,21.2,30.23,ESE,113,0.4,1.1,83,0.00,,,0.00,WUHU216HW,2013-01-05 04:33:00,
2013-01-04 22:38:00,25.6,21.4,30.23,South,188,0.9,1.8,84,0.00,,,0.00,WUHU216HW,2013-01-05 04:38:00,
2013-01-04 22:43:00,25.9,21.7,30.23,SSE,160,1.1,2.5,84,0.00,,,0.00,WUHU216HW,2013-01-05 04:43:00,
2013-01-04 22:48:00,25.9,21.4,30.23,SSE,162,0.4,2.5,83,0.00,,,0.00,WUHU216HW,2013-01-05 04:48:00,
2013-01-04 22:54:00,25.7,21.2,30.23,South,180,2.2,2.5,83,0.00,,,0.00,WUHU216HW,2013-01-05 04:54:00,
2013-01-04 22:59:00,25.7,21.2,30.23,South,176,0.6,2.2,83,0.00,,,0.00,WUHU216HW,2013-01-05 04:59:00,
2013-01-04 23:00:00,25.7,21.2,30.23,SSE,158,0.2,2.2,83,0.00,,,0.00,WUHU216HW,2013-01-05 05:00:00,
2013-01-04 23:01:00,25.6,21.1,30.23,SE,137,0.2,2.2,83,0.00,,,0.00,WUHU216HW,2013-01-05 05:01:00,
2013-01-04 23:06:00,25.6,21.1,30.23,SSW,203,0.2,0.9,83,0.00,,,0.00,WUHU216HW,2013-01-05 05:06:00,
2013-01-04 23:11:00,25.4,21.0,30.23,SSW,204,0.3,0.9,83,0.00,,,0.00,WUHU216HW,2013-01-05 05:11:00,
2013-01-04 23:16:00,25.4,21.3,30.23,SE,135,0.4,0.9,84,0.00,,,0.00,WUHU216HW,2013-01-05 05:16:00,
2013-01-04 23:21:00,25.4,21.0,30.23,SE,135,0.3,0.7,83,0.00,,,0.00,WUHU216HW,2013-01-05 05:21:00,
2013-01-04 23:26:00,25.6,21.4,30.23,SSE,168,0.3,0.7,84,0.00,,,0.00,WUHU216HW,2013-01-05 05:26:00,
2013-01-04 23:31:00,25.4,21.0,30.23,SSW,203,0.2,1.1,83,0.00,,,0.00,WUHU216HW,2013-01-05 05:31:00,
2013-01-04 23:36:00,25.2,20.8,30.23,SSE,149,0.3,1.1,83,0.00,,,0.00,WUHU216HW,2013-01-05 05:36:00,
2013-01-04 23:41:00,24.8,20.4,30.23,SSE,158,0.3,0.7,83,0.00,,,0.00,WUHU216HW,2013-01-05 05:41:00,
2013-01-04 23:46:00,24.8,20.7,30.23,SSE,158,0.2,0.4,84,0.00,,,0.00,WUHU216HW,2013-01-05 05:46:00,
2013-01-04 23:51:00,24.8,21.0,30.22,SSW,197,0.4,0.9,85,0.00,,,0.00,WUHU216HW,2013-01-05 05:51:00,
2013-01-04 23:56:00,24.8,21.0,30.22,South,181,0.4,0.9,85,0.00,,,0.00,WUHU216HW,2013-01-05 05:56:00,